Página principal
METAR-TAF:

METAR-TAF

Aeroportos :

Ardmore, Oklahoma, Estados Unidos

latitude: 34-18-11N, longitude: 097-01-10W, altura: 232 m

Observação actual do tempo

O boletim foi feito há 29 minutos, às 16:55 UTC
Vento 14 kt de oes-sudoeste com rajadas de 17 kt
Temperatura 8°C
Humidade 71%
Pressão 1015 hPa
Visibilidade: 16.1 km
Nuvens dispersasa uma altura de 11000 ft

METAR: KADM 201655Z 25014G17KT 10SM SCT110 08/03 A2996

Hora: 11:24 (17:24 UTC)


TAF: em falta

Observações e previsões do tempo de mais de 4000 aeroportos (mensagens METAR e TAF).

As estações disponíveis são os pontos amarelos e vermelhos sobre o mapa.

Mova o rato sobre o mapa para ver o nome da estação.

Depois clique no ponto para visualizar as observações e previsões meteorológicas.

Para alterar o mapa : clique nos botões verdes com uma cruz preta para aumentar o zoom; no botão verde com uma pitada de zoom; ou nas setas verdes para mapas adjacentes.


METAR-TAF: